User: anonymous   Login
Location: Unspecified
(0.0000°N, 0.0000°E)
Time: 07:57:33
(UTC+00:00)
Language:

N. Korean satellite - Orbit

View from above orbital plane
View from above orbital plane
View from above satellite
View from above satellite

Ground track
Ground track

The orbit data is extracted from the following two-line orbital elements,

1 39026U 12072A   17021.50236638  .00002128  00000-0  86694-4 0  9996
2 39026  97.2336  44.3500 0040537 338.5803  21.3737 15.24810218227632
Epoch (UTC): 21 January 2017 12:03:24
Eccentricity: 0.0040537
inclination: 97.2336°
perigee height: 463 km
apogee height: 519 km
right ascension of ascending node: 44.3500°
argument of perigee: 338.5803°
revolutions per day: 15.24810218
mean anomaly at epoch: 21.3737°
orbit number at epoch: 22763

The dashed part of the orbit path shows where the satellite is in the earth's shadow,  

DLR